Temperature
21 21 21 21 19 18 20 21 21 22 22 22 22 21 20 19 19 18 18 18 18 18 18 18 18 18 18 18 18 18 18 18 18 18 18 18 18 18 18 18 18 17 17 18 18 18 18 18 18
22 22 22 21 18 19 20 21 21 22 22 22 21 21 20 19 19 18 18 18 18 18 18 18 18 18 18 18 18 18 18 18 18 18 18 18 18 18 18 18 17 18 17 17 17 17 17 17 17
22 21 21 18 19 19 20 21 22 23 23 22 21 20 20 19 19 18 18 18 18 18 18 18 18 18 18 18 18 18 18 18 18 18 18 18 18 18 18 18 17 17 17 17 17 17 17 17 17
22 22 21 19 20 20 21 21 22 22 22 22 21 20 19 19 19 19 18 18 18 18 18 18 18 18 18 18 18 18 18 18 18 18 18 18 18 18 18 18 17 17 17 17 17 17 17 17 17
22 21 19 19 20 21 21 22 23 22 22 21 20 19 19 19 19 19 18 18 19 18 18 18 18 18 18 18 18 18 18 18 18 18 18 18 18 17 17 17 17 17 17 17 17 17 17 17 17
22 20 18 19 20 21 22 23 22 22 21 21 20 19 18 19 19 19 18 18 18 18 18 18 18 18 18 18 18 18 18 18 18 18 18 17 17 17 17 17 17 17 17 17 17 17 17 17 17
21 18 19 20 20 21 22 23 22 22 21 21 21 18 18 19 19 19 18 18 18 18 18 18 18 18 18 18 18 18 18 18 17 17 17 17 17 17 17 17 17 17 17 17 17 17 17 16 16
23 18 20 20 20 21 23 23 23 22 22 22 21 19 19 19 19 19 18 18 18 18 18 18 18 18 18 18 17 17 17 17 17 17 17 17 17 17 17 17 17 17 17 17 16 16 16 16 16
23 18 19 20 21 21 23 23 23 23 22 21 21 21 20 19 19 19 18 18 18 18 18 18 18 18 18 18 17 17 17 17 17 17 17 17 17 17 17 17 17 17 16 16 16 16 16 16 16
22 18 21 21 21 22 23 23 23 22 21 20 20 20 20 19 19 19 19 18 18 18 18 18 18 18 18 18 18 17 17 17 17 17 17 17 17 17 17 16 16 16 16 16 16 16 16 16 16
21 20 21 22 23 23 23 23 23 22 20 20 20 20 20 19 19 19 19 19 19 18 18 18 18 18 18 18 18 17 17 17 17 17 17 17 17 17 17 16 16 16 16 16 16 16 16 16 16
22 22 23 23 24 23 23 23 22 22 22 22 21 21 20 19 19 19 19 19 19 19 18 18 18 18 18 18 18 17 17 17 17 17 17 17 17 17 16 16 16 16 16 16 16 16 16 16 16
22 22 23 24 24 23 23 22 22 22 22 21 21 20 20 20 20 19 19 19 19 19 18 18 18 18 18 18 18 17 17 17 17 17 17 17 17 17 16 16 16 16 16 16 16 16 16 16 16
23 23 23 23 23 23 22 21 21 21 21 21 21 20 20 20 20 19 19 19 19 19 19 18 18 18 18 18 17 17 17 17 17 17 17 17 17 17 16 16 16 16 16 16 16 16 16 16 16
23 22 22 22 23 23 22 20 20 21 21 21 20 20 20 20 20 20 19 19 19 19 19 18 18 18 18 18 17 17 17 17 17 17 17 17 17 16 16 16 16 16 16 15 15 15 15 15 15
22 21 20 21 22 22 21 20 20 21 21 20 20 20 20 20 20 20 19 19 19 19 19 18 18 18 18 18 17 17 17 17 17 17 17 16 16 16 16 16 16 15 15 15 15 15 15 15 15
20 19 20 21 22 22 21 19 20 21 20 20 20 20 20 20 20 20 20 19 19 19 19 18 18 18 18 17 17 17 17 17 17 17 16 16 16 16 16 16 16 15 15 15 15 15 15 15 15
20 20 20 21 21 21 20 19 19 20 20 20 20 20 20 20 20 20 19 19 19 19 18 18 18 18 17 17 17 17 17 17 17 16 16 16 16 16 16 16 16 15 15 15 15 15 15 15 15
21 21 20 21 21 21 20 19 19 20 20 19 19 19 20 20 20 19 19 19 19 19 18 18 18 17 17 17 17 17 17 16 16 16 16 16 16 16 16 16 16 15 15 15 15 15 15 15 15
21 21 20 21 22 21 19 19 19 19 19 19 19 19 19 19 19 19 19 19 19 18 18 18 17 17 17 17 17 17 16 16 16 16 16 16 16 16 16 16 15 15 15 15 15 15 15 14 14
21 21 21 21 21 20 20 19 18 19 20 20 20 20 20 19 19 19 19 19 18 18 18 18 17 17 17 17 16 16 16 16 16 16 16 16 16 16 16 15 15 15 15 15 15 15 15 14 14
21 22 22 21 19 18 19 17 18 18 18 18 19 19 19 19 19 19 19 18 18 18 18 18 17 17 17 17 16 16 16 16 16 16 16 16 15 15 15 15 15 15 15 15 15 14 15 14 14
21 22 21 21 20 18 18 17 17 18 18 18 18 19 19 19 19 19 19 18 18 18 18 17 17 17 17 16 16 16 16 16 16 15 15 15 15 15 15 15 15 15 15 15 15 14 14 14 14
22 20 19 17 17 18 18 18 18 17 18 18 18 19 19 19 19 19 18 18 18 18 17 17 17 17 17 16 16 16 16 16 16 15 15 15 15 15 15 15 15 15 15 15 15 14 14 14 14
20 18 17 17 16 17 18 18 18 18 19 19 18 18 18 18 18 18 18 18 18 17 17 17 17 17 16 16 16 16 16 16 15 15 15 15 15 15 15 14 14 14 14 14 14 14 14 14 14
20 18 17 17 17 17 18 18 18 19 19 19 19 18 18 18 18 18 18 18 17 17 17 16 16 16 16 16 16 16 15 15 15 15 15 15 15 15 15 14 14 14 14 14 14 14 14 14 14
20 18 18 16 17 17 17 18 19 18 18 18 18 17 17 17 17 17 17 17 17 17 17 16 16 16 16 16 16 15 15 15 15 15 15 15 14 14 14 14 14 14 14 14 14 14 14 14 14
20 19 16 17 17 16 17 17 17 18 17 17 16 17 17 17 17 17 17 17 17 17 16 16 16 16 16 15 15 15 15 15 15 15 15 14 14 14 14 14 14 14 14 14 14 14 14 13 13
20 19 17 15 15 16 16 17 18 17 17 16 16 17 17 17 17 17 17 17 16 16 16 16 16 16 15 15 15 15 15 15 15 15 14 14 14 14 14 14 14 14 14 14 13 13 13 13 13
20 19 17 17 16 15 15 16 18 17 17 17 17 17 17 17 17 17 16 16 16 16 15 15 15 15 15 15 15 15 15 14 14 14 14 14 14 14 14 14 14 13 13 13 13 13 13 13 13
Wind_Speed
5 4 2 3 5 4 2 1 1 3 4 5 8 10 8 6 4 5 3 8 9 7 8 10 10 11 11 10 10 10 10 10 10 10 11 11 11 11 11 11 11 11 11 11 10 10 10 10 10
2 1 3 4 5 4 1 1 4 4 5 6 8 8 7 5 4 6 4 8 9 9 8 10 11 11 10 10 10 10 10 10 10 10 10 10 10 10 11 11 11 11 10 10 9 9 9 9 9
2 0 3 4 3 3 3 2 3 4 5 4 5 6 5 4 4 4 6 11 10 8 9 10 11 10 10 10 9 9 9 9 10 10 10 10 10 10 10 10 10 10 10 9 9 9 9 9 9
2 4 4 5 4 1 4 4 4 5 5 6 6 6 4 2 4 6 11 11 10 7 8 10 11 10 10 9 9 9 9 9 9 9 10 10 10 10 10 10 10 10 9 9 9 8 8 8 8
3 4 5 4 2 1 2 3 5 6 4 5 7 6 3 3 7 11 11 11 10 6 7 9 11 11 10 9 8 8 9 9 9 9 9 9 9 10 10 9 9 9 9 8 8 8 8 8 8
4 4 4 3 1 1 1 3 6 7 6 6 7 5 2 2 7 9 10 9 9 7 7 8 10 11 10 9 8 8 8 8 8 8 8 8 9 9 9 8 8 8 8 8 8 8 8 8 8
4 4 3 3 2 2 2 3 6 6 5 4 6 5 3 2 5 8 9 9 7 7 6 6 7 8 9 9 8 8 8 8 7 7 7 8 8 8 8 8 7 7 7 7 7 7 7 8 8
5 4 2 1 3 2 2 3 5 6 5 4 5 7 6 6 6 8 8 8 7 6 5 5 6 6 7 7 8 8 7 7 7 7 7 6 6 6 7 6 6 6 6 5 6 6 7 8 8
4 5 1 1 3 3 3 4 2 4 6 3 3 5 7 9 8 8 6 5 5 6 5 4 5 5 6 6 7 7 7 7 6 5 5 4 4 4 4 5 5 4 4 5 6 6 7 8 8
5 3 2 3 4 4 3 4 4 4 5 4 5 5 8 8 8 8 7 7 6 6 6 5 5 5 5 5 5 5 5 4 4 4 4 4 4 3 3 4 4 4 4 5 6 7 7 7 7
4 4 2 2 3 3 3 2 2 6 3 5 9 10 9 8 7 7 7 7 6 6 6 6 5 5 5 3 5 4 4 4 3 4 5 5 4 3 2 2 2 3 4 4 5 6 6 6 6
3 2 3 2 2 3 3 3 2 3 5 7 11 12 10 9 8 8 8 7 6 5 5 5 6 5 5 4 4 4 3 4 3 4 5 5 3 2 2 2 2 2 3 4 4 4 5 6 6
2 1 2 2 3 3 4 4 3 2 4 8 9 9 9 9 8 6 6 5 6 6 5 4 5 5 4 3 3 3 3 4 4 3 4 5 4 2 2 2 2 2 3 3 3 4 4 4 4
3 2 1 1 3 3 5 2 4 2 6 9 9 8 7 7 7 5 5 5 5 6 6 5 5 5 5 3 2 2 3 4 4 3 4 6 5 4 3 3 3 2 3 4 5 4 4 3 4
2 2 2 1 2 3 5 2 2 4 6 8 7 7 6 6 6 7 7 6 6 5 5 4 5 5 5 4 3 3 3 5 3 3 4 6 6 6 5 3 3 2 4 6 5 5 4 4 4
3 3 1 4 2 3 6 3 4 4 8 7 6 5 5 4 6 7 7 7 6 5 5 4 5 5 5 4 3 4 4 4 4 4 4 6 7 8 5 3 3 4 5 5 3 3 4 3 3
2 1 3 3 2 3 5 4 4 5 9 8 6 5 4 3 4 5 6 7 7 6 5 4 4 5 4 4 4 4 4 4 4 4 4 5 6 7 6 4 4 5 4 3 3 3 3 3 4
3 2 2 3 3 3 3 4 4 5 7 8 6 5 4 4 4 5 6 7 7 5 5 4 4 4 5 4 4 3 3 3 4 3 4 5 5 6 6 5 5 5 3 3 3 3 3 3 3
3 1 2 4 3 3 4 4 5 5 5 6 6 6 5 4 3 4 6 7 6 5 5 4 5 4 4 3 3 3 2 1 2 2 3 4 5 6 6 4 4 4 3 3 3 3 4 3 3
1 1 1 2 2 2 2 3 4 4 6 8 8 7 6 5 4 4 5 5 6 5 5 5 5 4 4 3 2 2 3 2 1 1 2 2 3 4 5 4 4 4 3 3 3 4 3 1 2
1 3 3 2 2 2 3 3 3 2 2 4 5 6 6 8 8 6 5 5 5 5 5 6 5 5 4 4 3 3 3 3 2 1 1 1 2 4 5 5 4 4 4 4 3 4 4 2 0
3 4 3 2 2 2 2 1 5 4 1 3 5 5 6 6 6 5 5 5 5 5 5 5 5 5 4 5 4 4 3 2 2 1 0 1 2 4 5 5 5 4 4 4 3 3 3 4 2
4 3 1 1 2 1 0 3 5 2 2 4 5 6 6 6 7 6 6 6 5 4 4 4 4 4 4 5 5 5 3 2 1 1 1 1 1 2 4 4 4 3 3 3 3 3 3 3 3
0 5 6 5 4 1 4 4 4 4 6 5 5 5 5 5 5 5 4 4 4 3 3 3 4 3 4 4 5 5 5 4 3 2 1 1 1 1 2 3 3 3 3 3 3 3 3 2 2
6 6 4 5 4 4 2 2 5 4 4 5 6 5 4 4 4 4 4 4 4 4 4 4 4 3 3 4 4 5 5 5 4 3 2 2 1 1 1 2 3 3 3 3 3 3 2 2 2
1 7 6 3 4 4 3 2 3 2 2 5 5 5 5 4 3 4 4 4 4 4 4 4 4 3 3 3 3 4 4 4 3 3 3 2 2 2 2 3 3 3 3 3 3 2 2 2 2
3 2 6 6 1 1 3 2 3 3 4 4 5 5 4 3 3 3 3 3 3 3 4 4 4 3 3 3 3 4 4 4 4 3 3 2 2 2 2 2 3 3 3 3 3 2 2 2 1
5 5 5 4 1 2 4 2 3 3 3 3 4 5 4 3 2 2 3 3 3 3 3 2 4 4 3 3 4 3 4 4 4 3 3 3 2 2 2 2 2 2 2 3 3 2 2 2 2
1 2 4 4 4 4 2 5 4 7 7 6 6 6 5 4 3 2 2 2 2 1 1 1 1 2 3 3 3 3 3 4 4 4 4 3 2 3 3 3 3 3 3 3 3 2 2 2 1
4 4 5 4 2 4 3 6 4 4 4 5 5 4 4 4 4 3 2 2 1 1 1 1 1 2 2 3 3 3 3 3 3 3 3 3 3 3 3 3 3 3 3 3 3 3 3 3 2
Wind_Direction
311 325 94 68 59 56 63 345 117 66 49 49 73 84 83 69 88 132 174 140 132 130 127 124 120 116 114 111 106 103 103 101 101 101 97 94 91 90 88 87 88 88 86 84 83 83 82 79 76
331 348 61 61 81 80 32 322 88 90 125 116 85 83 79 72 89 115 132 139 134 133 131 129 126 123 121 115 109 106 105 105 105 105 101 96 94 94 90 89 89 89 88 86 82 81 81 77 73
323 97 74 67 88 138 156 190 119 94 105 96 80 60 75 105 112 129 143 140 132 129 133 136 131 126 122 116 112 111 109 108 109 107 104 101 99 97 93 89 89 90 89 86 83 80 77 73 72
57 47 55 70 79 165 167 175 129 94 59 59 92 68 56 70 133 134 136 137 129 128 134 139 135 132 125 118 114 115 117 113 111 110 110 105 101 99 97 96 94 92 89 85 82 79 75 71 68
71 73 61 64 73 122 153 135 110 96 80 80 92 90 60 24 109 125 131 136 133 136 137 143 141 137 133 129 124 119 122 119 116 116 116 112 108 106 104 100 96 93 89 84 81 78 75 72 69
57 67 79 97 137 149 157 128 105 98 109 111 103 105 91 95 115 132 134 134 137 142 144 146 144 141 139 138 132 130 129 127 125 123 122 119 115 113 110 104 98 94 90 85 83 77 72 71 70
102 89 123 149 144 122 142 121 115 122 116 121 123 110 134 152 141 135 136 134 136 138 139 147 148 144 143 142 139 140 136 135 132 128 128 125 123 122 119 114 108 103 101 94 87 80 74 69 68
126 99 78 111 133 150 158 106 113 119 112 117 119 136 167 191 151 125 128 132 137 139 144 154 154 152 150 151 153 152 147 144 140 139 135 132 129 129 128 123 119 110 104 95 85 78 73 73 69
90 77 96 181 157 166 149 107 81 81 101 83 88 147 164 156 134 121 122 128 144 151 160 162 165 164 166 168 168 162 157 155 150 152 147 139 131 130 137 137 130 117 103 92 84 78 75 72 65
87 114 197 193 171 164 148 129 134 99 93 88 83 104 133 139 138 143 148 154 162 169 178 172 174 175 176 178 163 166 172 172 169 174 169 155 152 154 151 150 139 116 100 87 84 79 68 64 56
130 161 182 160 151 132 126 116 107 121 129 167 155 153 151 150 156 161 163 166 172 171 170 175 175 175 173 169 167 173 178 176 181 177 176 164 153 146 135 123 105 99 89 78 79 73 65 65 67
124 173 158 168 145 118 131 122 94 139 185 173 158 156 157 160 169 173 171 171 167 158 169 171 166 166 173 168 166 166 165 170 185 185 169 150 137 128 129 125 118 99 91 88 84 83 75 71 74
124 178 155 148 117 113 102 102 121 134 142 139 140 143 156 164 173 180 177 161 152 161 171 169 159 164 164 161 165 153 159 164 161 152 154 146 136 136 131 127 122 111 108 106 96 88 80 78 79
175 155 142 142 125 114 111 86 100 169 142 139 145 153 161 169 169 158 157 152 160 163 166 167 163 161 153 158 165 153 153 140 125 130 139 140 137 134 130 115 107 106 113 111 107 103 91 79 79
117 82 4 262 170 178 118 41 198 184 142 140 155 163 164 171 165 166 168 158 159 158 154 157 164 155 147 149 154 138 136 127 123 132 136 135 131 127 124 115 114 116 110 104 98 91 84 80 72
63 78 283 275 188 166 126 212 250 173 149 153 163 163 164 175 167 165 162 155 151 147 148 154 153 139 135 136 135 125 120 116 121 126 129 129 128 130 124 122 126 116 104 99 99 97 88 76 70
29 190 227 274 228 155 138 210 236 180 159 162 172 177 174 169 166 163 154 152 150 154 151 142 136 135 131 126 119 111 106 101 104 114 118 121 123 127 126 126 123 113 101 95 105 93 101 95 82
244 220 224 222 228 148 156 218 222 194 166 173 179 181 165 166 184 166 150 149 147 150 142 131 126 124 119 109 101 88 78 82 87 97 114 118 123 129 122 121 124 119 107 94 103 106 90 101 99
203 180 238 242 215 155 194 226 226 198 172 173 177 178 173 181 175 147 144 137 134 135 137 137 133 131 124 121 121 115 112 98 83 86 101 113 123 133 126 129 131 125 120 127 125 113 96 87 102
135 136 247 285 250 167 196 247 238 188 187 182 180 181 179 162 142 139 141 138 142 145 143 142 141 142 139 144 149 144 136 124 111 82 76 105 120 133 137 138 143 138 125 112 115 114 113 122 118
354 180 209 242 346 36 98 342 303 254 200 187 182 179 175 167 165 163 154 154 146 145 152 153 154 148 146 141 115 97 79 69 56 53 43 24 108 115 125 139 139 142 140 147 151 142 136 152 196
260 233 205 195 73 276 142 227 279 254 218 204 200 186 178 170 164 162 159 162 167 169 160 152 154 150 148 141 136 142 140 148 189 188 144 39 91 115 121 132 142 149 149 155 167 152 151 149 164
225 250 244 205 140 339 322 153 275 214 214 225 209 191 183 178 167 166 172 174 171 162 154 151 153 155 153 148 148 147 143 158 151 124 104 75 78 110 122 134 141 144 148 157 160 150 158 161 167
110 37 34 45 74 316 242 166 254 224 211 208 208 193 184 179 170 165 164 153 156 152 152 149 150 167 164 151 149 152 154 151 137 142 139 110 72 86 122 135 140 149 157 166 166 166 168 170 165
63 71 30 8 10 263 268 154 242 241 200 175 173 170 165 161 158 155 152 151 158 161 167 165 153 170 175 159 159 166 165 161 165 170 171 155 144 146 170 156 160 166 170 169 163 159 167 162 160
155 131 145 195 237 282 335 216 254 281 129 130 132 128 120 132 143 155 167 166 170 170 168 163 158 175 185 177 177 175 169 165 167 168 164 173 190 197 180 161 155 159 157 161 158 152 154 145 152
128 159 171 152 241 284 297 307 335 39 76 95 109 115 126 139 149 159 163 167 179 188 188 180 178 183 192 190 178 177 177 168 170 173 165 182 201 194 168 161 155 158 161 159 149 139 148 138 142
151 151 89 103 130 291 301 266 230 215 180 152 147 151 169 171 161 167 176 178 189 198 200 184 175 182 189 184 182 186 192 184 178 169 172 179 191 182 171 163 164 162 162 159 149 156 150 135 152
124 105 113 128 155 163 259 275 227 198 189 176 179 176 179 183 180 177 182 177 173 149 143 159 178 168 170 182 184 182 190 190 172 171 182 185 185 182 181 177 166 160 161 158 157 169 146 135 144
162 168 145 153 228 175 184 265 288 197 182 164 166 172 176 175 173 176 168 135 128 141 151 167 186 178 188 188 184 188 186 174 170 187 195 186 183 186 184 176 167 165 163 161 162 175 164 157 163
Height
1520 1519 1519 1520 1523 1533 1536 1530 1524 1522 1522 1522 1521 1522 1525 1529 1532 1539 1536 1534 1535 1535 1535 1535 1535 1535 1534 1534 1534 1533 1533 1533 1533 1533 1533 1533 1533 1533 1533 1533 1532 1532 1532 1532 1532 1532 1532 1532 1531
1520 1519 1520 1520 1530 1543 1539 1528 1525 1522 1523 1523 1523 1525 1527 1530 1532 1533 1534 1535 1536 1536 1536 1536 1536 1535 1535 1535 1534 1534 1534 1534 1534 1534 1534 1534 1534 1534 1534 1534 1533 1533 1533 1533 1533 1533 1532 1532 1532
1519 1519 1521 1523 1532 1540 1536 1527 1523 1522 1522 1522 1525 1527 1529 1532 1533 1533 1534 1535 1536 1536 1536 1536 1536 1536 1536 1535 1535 1535 1535 1535 1535 1534 1534 1534 1534 1534 1534 1534 1534 1534 1534 1534 1534 1534 1533 1533 1533
1520 1521 1522 1529 1533 1530 1527 1524 1523 1523 1524 1524 1525 1529 1532 1534 1534 1534 1535 1536 1537 1537 1537 1537 1537 1537 1536 1536 1536 1536 1535 1535 1535 1535 1535 1535 1535 1535 1535 1535 1535 1535 1535 1535 1535 1535 1535 1534 1534
1520 1521 1528 1535 1532 1526 1524 1522 1522 1523 1525 1526 1527 1531 1534 1535 1535 1535 1536 1537 1537 1537 1538 1537 1537 1537 1537 1537 1536 1536 1536 1536 1536 1536 1536 1537 1537 1537 1537 1536 1536 1536 1536 1536 1536 1536 1536 1535 1535
1521 1522 1535 1540 1533 1526 1524 1523 1523 1524 1526 1528 1529 1532 1535 1536 1536 1536 1537 1538 1538 1538 1538 1538 1538 1538 1538 1538 1537 1537 1537 1537 1537 1537 1537 1537 1537 1538 1538 1538 1538 1537 1537 1537 1537 1537 1537 1537 1536
1522 1527 1534 1534 1533 1529 1525 1523 1524 1525 1526 1528 1529 1532 1535 1536 1537 1537 1538 1539 1539 1539 1539 1539 1539 1539 1539 1539 1539 1538 1538 1538 1538 1538 1538 1538 1539 1539 1539 1539 1539 1539 1538 1538 1538 1538 1538 1538 1537
1521 1526 1532 1533 1533 1530 1524 1524 1525 1525 1527 1529 1529 1531 1534 1536 1537 1538 1539 1539 1539 1539 1539 1539 1539 1539 1539 1539 1539 1539 1539 1539 1539 1539 1539 1539 1540 1540 1540 1540 1540 1540 1540 1540 1539 1539 1539 1539 1538
1522 1531 1536 1532 1530 1528 1524 1524 1525 1526 1527 1528 1529 1530 1532 1535 1537 1538 1539 1539 1539 1540 1540 1540 1540 1540 1540 1540 1540 1540 1540 1540 1540 1540 1540 1540 1540 1541 1541 1541 1541 1541 1541 1541 1540 1540 1540 1539 1539
1522 1533 1530 1525 1524 1524 1523 1523 1525 1527 1527 1529 1530 1531 1533 1535 1536 1537 1538 1538 1539 1540 1540 1540 1540 1540 1540 1541 1541 1541 1541 1541 1541 1541 1541 1541 1541 1541 1542 1542 1542 1542 1542 1542 1541 1541 1541 1540 1540
1522 1527 1524 1523 1522 1522 1523 1524 1525 1526 1529 1529 1529 1531 1533 1535 1536 1537 1538 1538 1539 1540 1540 1540 1540 1541 1541 1541 1541 1541 1541 1541 1541 1542 1542 1542 1542 1542 1542 1542 1542 1542 1542 1542 1542 1542 1542 1541 1541
1522 1522 1522 1522 1522 1522 1523 1524 1526 1526 1527 1528 1528 1530 1532 1534 1535 1536 1537 1538 1539 1540 1540 1540 1540 1541 1541 1541 1541 1541 1541 1541 1541 1542 1542 1542 1543 1543 1543 1542 1543 1543 1543 1542 1542 1542 1542 1542 1542
1522 1522 1522 1522 1522 1523 1523 1524 1526 1527 1527 1528 1529 1531 1532 1534 1535 1536 1537 1538 1538 1539 1539 1540 1540 1540 1541 1541 1541 1541 1541 1541 1542 1542 1543 1543 1543 1543 1543 1543 1543 1543 1543 1543 1543 1543 1543 1542 1542
1522 1522 1522 1522 1522 1523 1524 1526 1526 1528 1527 1528 1529 1531 1532 1534 1535 1536 1536 1537 1538 1538 1539 1539 1539 1540 1540 1540 1541 1541 1541 1542 1542 1542 1543 1543 1543 1543 1543 1543 1543 1543 1543 1543 1543 1543 1543 1543 1543
1521 1523 1524 1522 1522 1523 1524 1529 1527 1527 1528 1528 1529 1531 1532 1534 1534 1535 1536 1536 1537 1538 1539 1539 1539 1539 1540 1540 1540 1541 1541 1542 1542 1542 1543 1543 1543 1543 1543 1543 1543 1543 1543 1543 1543 1543 1543 1543 1543
1523 1528 1533 1525 1522 1522 1528 1536 1527 1527 1527 1528 1529 1530 1532 1533 1533 1534 1535 1536 1537 1537 1538 1538 1539 1539 1539 1539 1540 1540 1541 1541 1542 1542 1543 1543 1543 1543 1543 1542 1543 1543 1543 1543 1543 1543 1543 1543 1543
1531 1537 1535 1528 1521 1522 1527 1532 1526 1526 1526 1527 1529 1530 1530 1531 1533 1534 1534 1535 1536 1536 1537 1537 1538 1538 1539 1539 1539 1540 1540 1541 1541 1541 1542 1542 1542 1542 1542 1542 1542 1543 1543 1543 1543 1543 1543 1543 1543
1536 1535 1533 1531 1523 1523 1528 1529 1525 1525 1525 1526 1528 1528 1529 1530 1531 1532 1533 1534 1535 1536 1536 1537 1537 1538 1538 1539 1539 1539 1540 1540 1541 1541 1542 1542 1542 1542 1542 1542 1542 1542 1543 1543 1543 1543 1543 1543 1544
1526 1529 1532 1527 1521 1524 1527 1528 1525 1524 1525 1526 1526 1527 1528 1529 1530 1531 1532 1533 1534 1535 1535 1536 1536 1537 1537 1538 1538 1538 1539 1540 1540 1540 1541 1541 1541 1541 1541 1541 1541 1542 1542 1543 1543 1543 1543 1543 1544
1524 1530 1531 1526 1520 1523 1528 1528 1524 1523 1523 1523 1524 1525 1526 1527 1529 1530 1531 1532 1533 1534 1534 1535 1535 1536 1536 1537 1537 1538 1538 1539 1539 1539 1540 1540 1540 1540 1540 1540 1541 1541 1542 1542 1543 1543 1543 1543 1544
1525 1528 1528 1528 1523 1523 1528 1534 1528 1524 1523 1523 1524 1524 1524 1525 1527 1528 1530 1531 1532 1532 1533 1533 1534 1535 1535 1536 1536 1537 1538 1538 1538 1538 1539 1539 1539 1539 1539 1540 1540 1540 1541 1541 1542 1542 1543 1543 1544
1528 1520 1520 1523 1531 1538 1533 1548 1534 1526 1525 1523 1523 1523 1524 1525 1526 1527 1529 1530 1530 1531 1532 1533 1533 1534 1534 1535 1535 1536 1536 1536 1537 1537 1537 1538 1538 1538 1538 1539 1539 1540 1540 1540 1541 1542 1542 1543 1543
1521 1516 1519 1522 1529 1537 1536 1544 1539 1528 1528 1524 1522 1522 1523 1524 1525 1526 1527 1528 1529 1530 1531 1532 1533 1533 1533 1534 1534 1535 1535 1536 1536 1536 1536 1536 1537 1537 1537 1538 1538 1538 1539 1540 1540 1540 1541 1542 1542
1515 1519 1524 1530 1536 1547 1537 1542 1541 1531 1525 1522 1520 1521 1522 1523 1524 1525 1526 1527 1528 1529 1530 1530 1531 1532 1532 1533 1533 1534 1534 1534 1534 1535 1535 1535 1535 1536 1536 1536 1537 1537 1538 1538 1539 1539 1540 1540 1541
1519 1535 1550 1552 1557 1551 1533 1537 1536 1522 1518 1518 1519 1520 1521 1522 1523 1524 1524 1525 1526 1527 1528 1529 1529 1530 1531 1531 1532 1532 1533 1533 1533 1533 1533 1534 1534 1534 1535 1535 1536 1536 1536 1537 1537 1538 1538 1539 1539
1523 1532 1552 1560 1560 1551 1536 1538 1530 1519 1517 1517 1518 1519 1521 1522 1523 1523 1524 1524 1525 1525 1526 1527 1528 1528 1529 1530 1530 1531 1531 1531 1532 1532 1532 1532 1533 1533 1534 1534 1534 1534 1535 1535 1536 1536 1537 1537 1538
1524 1531 1532 1545 1547 1551 1544 1534 1525 1519 1519 1519 1519 1520 1521 1522 1522 1523 1523 1524 1524 1525 1525 1525 1526 1527 1527 1528 1528 1529 1529 1530 1530 1531 1531 1531 1531 1532 1532 1532 1532 1533 1533 1533 1534 1534 1535 1535 1536
1517 1523 1536 1544 1554 1558 1548 1540 1536 1526 1522 1520 1520 1520 1521 1521 1522 1522 1522 1522 1523 1523 1524 1524 1524 1525 1526 1526 1527 1527 1528 1528 1529 1529 1529 1529 1530 1530 1530 1530 1530 1530 1531 1531 1532 1532 1533 1533 1534
1521 1525 1532 1543 1547 1556 1557 1546 1521 1520 1518 1518 1519 1519 1520 1520 1520 1521 1521 1521 1522 1522 1522 1522 1522 1523 1523 1524 1525 1525 1525 1526 1527 1527 1528 1528 1528 1528 1528 1528 1528 1528 1528 1529 1529 1530 1531 1531 1532
1518 1522 1530 1543 1545 1547 1553 1544 1516 1516 1515 1516 1517 1518 1519 1519 1519 1520 1520 1520 1520 1520 1520 1520 1520 1521 1521 1522 1523 1523 1524 1524 1525 1525 1526 1526 1526 1526 1526 1526 1526 1526 1526 1527 1527 1528 1528 1529 1530